Siloam Springs, AR

4:52 AM CDT on May 24, 2017 (GMT -0500)
Smith

Weather History for KSLG - December, 2014

Change the Weather History Date:

Friday, December 5, 2014

  Actual Average Record
Temperature  
Mean Temperature 54 °F -  
Max Temperature 59 °F 49 °F 73 °F (1998)
Min Temperature 48 °F 33 °F 12 °F (2005)
Degree Days  
Heating Degree Days 12    
Growing Degree Days 4 (Base 50)    
Moisture  
Dew Point 50 °F    
Average Humidity 83    
Maximum Humidity 88    
Minimum Humidity 77    
Precipitation  
Precipitation 0.00 in - - ()
Sea Level Pressure  
Sea Level Pressure 30.07 in    
Wind  
Wind Speed 8 mph (SW)    
Max Wind Speed 16 mph    
Max Gust Speed 23 mph    
Visibility 6 miles    
Events      
Averages and records for this station are not official NWS values.
T = Trace of Precipitation, MM = Missing Value Source: NWS Daily Summary

Daily Weather History Graph

Daily Weather History Graph

Search for Another Location

Airport or City:

Trip Planner

Search our weather history database for the weather conditions in past years. The results will help you decide how hot, cold, wet, or windy it might be!

Date:

Astronomy

Dec. 05, 2014 Rise Set
Actual Time 7:14 AM CST 5:03 PM CST
Civil Twilight 6:45 AM CST 5:31 PM CST
Nautical Twilight 6:13 AM CST 6:03 PM CST
Astronomical Twilight 5:42 AM CST 6:34 PM CST
Moon 4:48 PM CST (12/5) 6:10 AM CST (12/5)
Length of Visible Light 10h 45m
Length of Day
9h 48m
Waxing Gibbous, 99% of the Moon is Illuminated
Dec 5
Waxing Gibbous
Dec 6
Full
Dec 14
Last Quarter
Dec 21
New
Dec 28
First Quarter

Hourly Weather History & Observations

Time (CST) Temp. Dew Point Humidity Pressure Visibility Wind Dir Wind Speed Gust Speed Precip Events Conditions
12:15 AM 53.6 °F 48.2 °F 82% 30.10 in 1.5 mi SE 4.6 mph - N/A   Overcast
12:35 AM 53.6 °F 48.2 °F 82% 30.09 in 2.5 mi SE 4.6 mph - N/A   Overcast
12:55 AM 53.6 °F 48.2 °F 82% 30.09 in 3.0 mi SE 4.6 mph - N/A   Overcast
1:15 AM 53.6 °F 48.2 °F 82% 30.08 in 3.0 mi SSE 5.8 mph - N/A   Overcast
1:35 AM 53.6 °F 48.2 °F 82% 30.08 in 5.0 mi South 5.8 mph - N/A   Overcast
1:55 AM 55.4 °F 50.0 °F 82% 30.08 in 8.0 mi South 6.9 mph - N/A   Overcast
2:15 AM 55.4 °F 50.0 °F 82% 30.08 in 8.0 mi South 6.9 mph - N/A   Mostly Cloudy
2:35 AM 55.4 °F 50.0 °F 82% 30.08 in 7.0 mi South 8.1 mph - N/A   Overcast
2:55 AM 55.4 °F 50.0 °F 82% 30.07 in 8.0 mi South 9.2 mph - N/A   Overcast
3:15 AM 55.4 °F 50.0 °F 82% 30.07 in 8.0 mi South 9.2 mph - N/A   Overcast
3:35 AM 55.4 °F 50.0 °F 82% 30.06 in 9.0 mi South 11.5 mph 18.4 mph N/A   Overcast
3:55 AM 55.4 °F 51.8 °F 88% 30.05 in 10.0 mi South 13.8 mph - N/A   Mostly Cloudy
4:15 AM 55.4 °F 50.0 °F 82% 30.06 in 8.0 mi South 12.7 mph 18.4 mph N/A   Mostly Cloudy
4:35 AM 55.4 °F 50.0 °F 82% 30.05 in 8.0 mi South 10.4 mph - N/A   Overcast
4:55 AM 55.4 °F 50.0 °F 82% 30.05 in 7.0 mi South 8.1 mph - N/A   Overcast
5:15 AM 55.4 °F 51.8 °F 88% 30.04 in 7.0 mi South 10.4 mph - N/A   Overcast
5:35 AM 57.2 °F 51.8 °F 82% 30.04 in 7.0 mi South 10.4 mph - N/A   Overcast
5:55 AM 57.2 °F 51.8 °F 82% 30.04 in 7.0 mi South 10.4 mph - N/A   Overcast
6:15 AM 57.2 °F 51.8 °F 82% 30.04 in 7.0 mi South 10.4 mph 17.3 mph N/A   Overcast
6:35 AM 57.2 °F 51.8 °F 82% 30.04 in 7.0 mi South 9.2 mph - N/A   Overcast
6:55 AM 57.2 °F 51.8 °F 82% 30.04 in 7.0 mi South 8.1 mph - N/A   Overcast
7:15 AM 57.2 °F 51.8 °F 82% 30.04 in 7.0 mi South 6.9 mph - N/A   Overcast
7:35 AM 57.2 °F 51.8 °F 82% 30.05 in 5.0 mi WSW 4.6 mph - N/A   Overcast
7:55 AM 57.2 °F 51.8 °F 82% 30.05 in 5.0 mi South 4.6 mph - N/A   Overcast
8:15 AM 57.2 °F 51.8 °F 82% 30.05 in 6.0 mi South 6.9 mph - N/A   Overcast
8:35 AM 57.2 °F 51.8 °F 82% 30.06 in 4.0 mi South 10.4 mph - N/A   Overcast
8:55 AM 57.2 °F 51.8 °F 82% 30.05 in 5.0 mi South 8.1 mph - N/A   Mostly Cloudy
9:15 AM 57.2 °F 51.8 °F 82% 30.06 in 3.0 mi SSE 5.8 mph - N/A   Overcast
9:35 AM 57.2 °F 51.8 °F 82% 30.04 in 8.0 mi SSE 8.1 mph - N/A   Overcast
9:55 AM 57.2 °F 53.6 °F 88% 30.05 in 2.5 mi South 5.8 mph - N/A   Overcast
10:15 AM 57.2 °F 51.8 °F 82% 30.06 in 3.0 mi South 6.9 mph - N/A   Overcast
10:35 AM 57.2 °F 53.6 °F 88% 30.05 in 5.0 mi South 9.2 mph - N/A   Overcast
10:55 AM 57.2 °F 51.8 °F 82% 30.06 in 3.0 mi SSW 9.2 mph - N/A   Overcast
11:15 AM 57.2 °F 51.8 °F 82% 30.05 in 1.8 mi SW 6.9 mph - N/A   Overcast
11:35 AM 57.2 °F 51.8 °F 82% 30.05 in 2.5 mi SW 3.5 mph - N/A   Overcast
11:55 AM 57.2 °F 51.8 °F 82% 30.04 in 3.0 mi SSW 9.2 mph - N/A   Overcast
12:15 PM 57.2 °F 51.8 °F 82% 30.03 in 10.0 mi SW 5.8 mph - N/A   Overcast
12:35 PM 57.2 °F 51.8 °F 82% 30.02 in 10.0 mi SSW 10.4 mph - N/A   Overcast
12:55 PM 57.2 °F 53.6 °F 88% 30.01 in 10.0 mi SSW 9.2 mph - N/A   Overcast
1:15 PM 57.2 °F 53.6 °F 88% 30.00 in 10.0 mi SSW 9.2 mph - N/A   Overcast
1:35 PM 59.0 °F 53.6 °F 82% 29.99 in 10.0 mi SSW 8.1 mph - N/A   Overcast
1:55 PM 59.0 °F 53.6 °F 82% 29.99 in 10.0 mi SW 8.1 mph - N/A   Overcast
2:15 PM 59.0 °F 53.6 °F 82% 29.99 in 8.0 mi SW 9.2 mph - N/A   Overcast
2:35 PM 59.0 °F 53.6 °F 82% 30.00 in 5.0 mi WSW 6.9 mph - N/A   Overcast
2:55 PM 59.0 °F 53.6 °F 82% 30.01 in 3.0 mi WSW 8.1 mph - N/A   Overcast
3:15 PM 57.2 °F 53.6 °F 88% 30.00 in 1.0 mi SW 8.1 mph - N/A   Overcast
3:35 PM 57.2 °F 53.6 °F 88% 30.01 in 3.0 mi WSW 6.9 mph - N/A   Overcast
3:55 PM 59.0 °F 53.6 °F 82% 30.02 in 3.0 mi SW 6.9 mph - N/A   Overcast
4:15 PM 57.2 °F 53.6 °F 88% 30.03 in 1.8 mi WSW 5.8 mph - N/A   Overcast
4:35 PM 57.2 °F 53.6 °F 88% 30.04 in 0.8 mi WSW 6.9 mph - N/A   Overcast
4:55 PM 57.2 °F 53.6 °F 88% 30.04 in 2.0 mi WSW 5.8 mph - N/A   Overcast
5:15 PM 57.2 °F 53.6 °F 88% 30.05 in 5.0 mi West 4.6 mph - N/A   Overcast
5:35 PM 57.2 °F 53.6 °F 88% 30.05 in 3.0 mi West 4.6 mph - N/A   Overcast
5:55 PM 57.2 °F 53.6 °F 88% 30.06 in 3.0 mi WNW 5.8 mph - N/A   Overcast
6:15 PM 57.2 °F 53.6 °F 88% 30.07 in 8.0 mi NNW 15.0 mph - N/A   Overcast
6:35 PM 55.4 °F 51.8 °F 88% 30.09 in 6.0 mi NNW 15.0 mph - N/A   Overcast
6:55 PM 55.4 °F 50.0 °F 82% 30.09 in 9.0 mi NNW 11.5 mph - N/A   Overcast
7:15 PM 53.6 °F 48.2 °F 82% 30.10 in 10.0 mi North 12.7 mph - N/A   Overcast
7:35 PM 53.6 °F 48.2 °F 82% 30.11 in 10.0 mi NNW 13.8 mph - N/A   Overcast
7:55 PM 53.6 °F 46.4 °F 77% 30.13 in 10.0 mi NNW 15.0 mph 23.0 mph N/A   Overcast
8:15 PM 51.8 °F 46.4 °F 82% 30.14 in 10.0 mi NNW 11.5 mph - N/A   Overcast
8:35 PM 51.8 °F 46.4 °F 82% 30.15 in 9.0 mi NNW 10.4 mph 17.3 mph N/A   Overcast
8:55 PM 51.8 °F 46.4 °F 82% 30.15 in 5.0 mi NW 13.8 mph 17.3 mph N/A   Overcast
9:15 PM 50.0 °F 44.6 °F 82% 30.16 in 8.0 mi NNW 12.7 mph - N/A   Overcast
9:35 PM 50.0 °F 44.6 °F 82% 30.18 in 10.0 mi NNW 13.8 mph 20.7 mph N/A   Overcast
9:55 PM 48.2 °F 44.6 °F 87% 30.19 in 10.0 mi NNW 16.1 mph 20.7 mph N/A   Overcast
10:15 PM 48.2 °F 42.8 °F 82% 30.20 in 5.0 mi North 16.1 mph - N/A   Overcast
10:35 PM 48.2 °F 42.8 °F 82% 30.21 in 10.0 mi North 10.4 mph - N/A   Overcast
10:55 PM 48.2 °F 42.8 °F 82% 30.21 in 9.0 mi North 13.8 mph - N/A   Overcast
11:15 PM 48.2 °F 42.8 °F 82% 30.22 in 10.0 mi North 10.4 mph - N/A   Overcast
11:35 PM 48.2 °F 42.8 °F 82% 30.23 in 10.0 mi North 10.4 mph - N/A   Overcast
11:55 PM 48.2 °F 42.8 °F 82% 30.23 in 10.0 mi North 11.5 mph 18.4 mph N/A   Overcast